Hourly Data Report for August 29, 2003

SHERBROOKE A
QUEBEC

45°26'00.000" N
71°41'00.000" W
241.40 m
7028124
71610
YSC

Download Data

Hourly Data (August 2003)
Hourly Data Report for August 29, 2003
TIME
LST
Temp Definition
°C
Dew Point Definition
°C
Rel Hum Definition
%
Precip. Amount Definition
mm

Wind Dir Definition
10's deg

Wind Spd Definition
km/h
Visibility Definition
km
Stn Press Definition
kPa
Hmdx Definition


Wind Chill Definition


Weather Definition


00:00 7.4 6.7 95     0 15.0 99.26      
01:00 8.0 7.4 96   11 4 15.0 99.22      
02:00 8.3 7.6 95     0 15.0 99.19      
03:00 8.1 7.3 95   10 6 15.0 99.16      
04:00 7.8 7.1 95     0 15.0 99.10      
05:00 7.5 6.9 96     0 12.9 99.09      
06:00 8.5 7.9 96     0 12.9 99.09      
07:00 11.4 9.8 90   8 4 24.1 99.04     Mostly Cloudy
08:00 14.5 10.6 77     0 24.1 98.90     Mostly Cloudy
09:00 18.8 11.0 60   18 17 24.1 98.80     Mostly Cloudy
10:00 19.9 11.4 58   17 22 24.1 98.72     Mostly Cloudy
11:00 21.8 13.5 59   19 15 24.1 98.65 25   Mostly Cloudy
12:00 20.7 13.7 64   19 17 24.1 98.54     Cloudy
13:00 21.0 14.8 68   19 13 19.3 98.36 25   Mostly Cloudy
14:00 20.2 15.5 74   21 9 19.3 98.38     Rain Showers
15:00 20.8 16.1 74   18 11 12.9 98.19 25   Mostly Cloudy
16:00 21.5 16.7 74   20 15 12.9 98.18 27   Thunderstorms,Rain Showers
17:00 19.4 17.7 90   20 13 8.0 98.22     Rain
18:00 19.5 18.0 91   20 13 5.6 98.18     Rain
19:00 19.9 18.2 90   19 11 6.4 98.15      
20:00 19.8 18.3 91   21 4 8.0 98.19      
21:00 20.1 18.6 91   23 4 6.4 98.19 27    
22:00 20.4 18.9 91   23 15 5.6 98.19 27    
23:00 19.9 18.7 93   22 11 5.6 98.22      

Notes on Data Quality.

Legend

  • E = Estimated
  • M = Missing
  • NA = Not Available*
  • [empty] = Indicates an unobserved value
Date modified: